map of TGZ home
Great Circle Mapper logo
TGZ - Airport
Location
City:  Tuxtla Gutiérrez, Chiapas, México
Near (Alt.):Chiapa de Corzo
Name:Ángel Albino Corzo International Airport
ICAO / IATA:MMTG / TGZ

Details
Type:Airport (Aerodrome, Airfield)
Use:Public/Civil, International (customs port of entry)
Latitude:16°34'17"N (16.571389)
Longitude:93°01'56"W (-93.032221)
Elevation:1499 ft (457 m)
Runways:1
Longest:8202 × 148 ft (2500 × 45 m), paved

Time
Time Zone:UTC-6 (DST-5)
Local Time:

Weather
METAR:MMTG 012349Z 14004KT 10SM SCT025 BKN090 BKN300 24/20 A2988 RMK SLP089 52012 922 8/463 ISOLD CB PCPN E
TAF:MMTG 011716Z 0118/0218 30010KT P6SM SCT020 BKN300
TEMPO 0123/0203 3SM TSRA BKN015CB
FM020600 00000KT P6SM SCT015 BKN250
TEMPO 0210/0214 2SM BR BKN005

Related Locations
Nearby:
Farthest:CCK: 11719 mi / 18861 km
West Island (Pulau Panjang) [Cocos (Keeling) Islands], CC

Find:

   beyond  
but within

Other Information
Maps:
NOTAMs:
Links:
Sources:

  
flag of México   

Sectional Chart

Flight Planning
at skyvector.com

Satellite Image

Google Maps Satellite View

 

Copyright © 2004-2014 Karl L. Swartz. All rights reserved.
The Great Circle Mapper name and logo are trademarks of the Great Circle Mapper.
All other trademarks mentioned herein belong to their respective owners.
Please see credits for attibutions and further copyright information.

  Follow gcmap on Facebook Follow gcmap on Twitter

hCard Microformat

Geo Microformat